Location: C�mpuri de-Sus
(45.9500°N, 22.5500°E)
Time: 03:11:43
(UTC+00:00)

Cosmos 220 Rocket - Pass Details

Date: 24 October 2021
Orbit: 575 x 615 km, 74.0° (Epoch: 30 November)

Event Time Altitude Azimuth Distance (km) Brightness Sun altitude
Rises 16:53:45 0° 190° (S) 2,868 7.6 -15.5°
Reaches altitude 10° 16:56:00 10° 187° (S) 1,966 6.7 -15.9°
Maximum altitude 17:00:20 60° 108° (ESE) 700 4.0 -16.6°
Enters shadow 17:04:22 12° 29° (NNE) 1,849 6.2 -17.3°
